Location: Chèvreville
(49.1099°N, 2.8495°E)
Time: 15:55:18
(UTC+00:00)

CZ-2C R/B - Pass Details

Date: 28 January 2023
Orbit: 784 x 869 km, 98.3° (Epoch: 25 March)

Event Time Altitude Azimuth Distance (km) Brightness Sun altitude
Rises 17:14:19 0° 9° (N) 3,398 5.5 -6.2°
Reaches altitude 10° 17:16:44 10° 4° (N) 2,472 4.9 -6.6°
Maximum altitude 17:21:57 46° 293° (WNW) 1,137 3.8 -7.4°
Drops below altitude 10° 17:27:14 10° 221° (SW) 2,499 6.2 -8.2°
Sets 17:29:42 0° 216° (SW) 3,439 6.8 -8.6°
